Warrenton, VA

6:41 PM EDT on May 23, 2018 (GMT -0400)
Warrenton

Weather History for KHWY - August, 2014

Change the Weather History Date:

Sunday, August 10, 2014

  Actual Average (WUND) Record (WUND)
Temperature  
Mean Temperature 72 °F -  
Max Temperature 85 °F - - (-1)
Min Temperature 58 °F - - (-1)
Cooling Degree Days 6    
Growing Degree Days 22 (Base 50)    
Moisture  
Dew Point 67 °F    
Average Humidity 82    
Maximum Humidity 100    
Minimum Humidity 56    
Precipitation  
Precipitation 0.00 in - - ()
Sea Level Pressure  
Sea Level Pressure 30.12 in    
Wind  
Wind Speed 1 mph (SSE)    
Max Wind Speed 6 mph    
Max Gust Speed -    
Visibility 8 miles    
Events Fog    
Averages and records for this station are not official NWS values.
T = Trace of Precipitation, MM = Missing Value Source: NWS Daily Summary

Daily Weather History Graph

Daily Weather History Graph

Search for Another Location

Airport or City:

Astronomy

Aug. 10, 2014 Rise Set
Actual Time 6:20 AM EDT 8:11 PM EDT
Civil Twilight 5:51 AM EDT 8:39 PM EDT
Nautical Twilight 5:16 AM EDT 9:14 PM EDT
Astronomical Twilight 4:39 AM EDT 9:51 PM EDT
Moon 7:57 PM EDT (8/10) 6:09 AM EDT (8/10)
Length of Visible Light 14h 48m
Length of Day
13h 50m
Full, 100% of the Moon is Illuminated
Aug 10
Full
Aug 10
Full
Aug 17
Last Quarter
Aug 25
New
Sep 2
First Quarter

Hourly Weather History & Observations

Time (EDT) Temp. Heat Index Dew Point Humidity Pressure Visibility Wind Dir Wind Speed Gust Speed Precip Events Conditions
12:15 AM 70.0 °F - 68.4 °F 95% 30.13 in 10.0 mi Calm Calm - N/A   Overcast
12:35 AM 69.6 °F - 68.2 °F 95% 30.14 in 10.0 mi Calm Calm - N/A   Mostly Cloudy
12:55 AM 68.0 °F - 68.0 °F 100% 30.13 in 10.0 mi Calm Calm - N/A   Scattered Clouds
1:15 AM 67.6 °F - 67.6 °F 100% 30.13 in 10.0 mi Calm Calm - N/A   Mostly Cloudy
1:35 AM 67.3 °F - 67.3 °F 100% 30.12 in 10.0 mi Calm Calm - N/A   Scattered Clouds
1:55 AM 66.6 °F - 66.6 °F 100% 30.12 in 7.0 mi Calm Calm - N/A   Clear
2:15 AM 64.6 °F - 64.6 °F 100% 30.12 in 5.0 mi Calm Calm - N/A   Clear
2:35 AM 64.8 °F - 64.8 °F 100% 30.12 in 7.0 mi Calm Calm - N/A   Clear
2:55 AM 65.7 °F - 65.7 °F 100% 30.12 in 7.0 mi Calm Calm - N/A   Mostly Cloudy
3:15 AM 66.2 °F - 66.2 °F 100% 30.12 in 7.0 mi Calm Calm - N/A   Overcast
3:35 AM 66.6 °F - 66.6 °F 100% 30.12 in 10.0 mi Calm Calm - N/A   Overcast
3:55 AM 65.7 °F - 65.7 °F 100% 30.12 in 7.0 mi Calm Calm - N/A   Overcast
4:15 AM 64.6 °F - 64.6 °F 100% 30.11 in 7.0 mi Calm Calm - N/A   Scattered Clouds
4:35 AM 62.1 °F - 62.1 °F 100% 30.11 in 0.5 mi Calm Calm - N/A Fog Fog
4:55 AM 62.1 °F - 62.1 °F 100% 30.11 in 0.2 mi Calm Calm - N/A Fog Fog
5:15 AM 59.9 °F - 59.9 °F 100% 30.11 in 0.5 mi Calm Calm - N/A Fog Fog
5:35 AM 59.5 °F - 59.5 °F 100% 30.12 in 0.5 mi Calm Calm - N/A Fog Fog
5:55 AM 59.4 °F - 59.4 °F 100% 30.12 in 0.2 mi Calm Calm - N/A Fog Fog
6:15 AM 58.3 °F - 58.3 °F 100% 30.12 in 0.2 mi Calm Calm - N/A Fog Fog
6:35 AM 59.2 °F - 59.2 °F 100% 30.13 in 0.2 mi Calm Calm - N/A Fog Fog
6:55 AM 60.3 °F - 60.3 °F 100% 30.13 in 1.2 mi Calm Calm - N/A   Mist
7:15 AM 61.5 °F - 61.5 °F 100% 30.14 in 0.8 mi Calm Calm - N/A   Mist
7:35 AM 63.1 °F - 63.1 °F 100% 30.14 in 2.0 mi Calm Calm - N/A   Clear
7:55 AM 64.6 °F - 64.6 °F 100% 30.15 in 5.0 mi Calm Calm - N/A   Clear
8:15 AM 66.2 °F - 66.2 °F 100% 30.16 in 5.0 mi Calm Calm - N/A   Clear
8:35 AM 68.9 °F - 68.9 °F 100% 30.16 in 10.0 mi Calm Calm - N/A   Clear
8:55 AM 71.2 °F - 69.1 °F 93% 30.15 in 10.0 mi Calm Calm - N/A   Clear
9:15 AM 72.5 °F - 68.7 °F 88% 30.15 in 10.0 mi Calm Calm - N/A   Clear
9:35 AM 73.6 °F - 69.3 °F 86% 30.15 in 10.0 mi Calm Calm - N/A   Clear
9:55 AM 74.1 °F - 68.2 °F 82% 30.15 in 10.0 mi Calm Calm - N/A   Clear
10:15 AM 76.1 °F - 68.4 °F 77% 30.15 in 10.0 mi Calm Calm - N/A   Clear
10:35 AM 77.5 °F - 68.9 °F 75% 30.15 in 10.0 mi Calm Calm - N/A   Clear
10:55 AM 79.3 °F - 69.6 °F 72% 30.15 in 10.0 mi Calm Calm - N/A   Clear
11:15 AM 79.3 °F - 68.5 °F 69% 30.16 in 10.0 mi South 3.5 mph - N/A   Clear
11:35 AM 80.2 °F 83.0 °F 68.4 °F 67% 30.15 in 10.0 mi Calm Calm - N/A   Clear
11:55 AM 79.7 °F - 69.6 °F 71% 30.15 in 10.0 mi SE 4.6 mph - N/A   Scattered Clouds
12:15 PM 80.1 °F 82.9 °F 68.9 °F 69% 30.15 in 10.0 mi Calm Calm - N/A   Mostly Cloudy
12:35 PM 80.6 °F 83.5 °F 68.9 °F 67% 30.15 in 10.0 mi WNW 3.5 mph - N/A   Mostly Cloudy
12:55 PM 81.5 °F 84.4 °F 68.4 °F 64% 30.14 in 10.0 mi NE 4.6 mph - N/A   Mostly Cloudy
1:15 PM 82.2 °F 85.1 °F 68.0 °F 62% 30.14 in 10.0 mi SW 3.5 mph - N/A   Mostly Cloudy
1:35 PM 83.1 °F 86.1 °F 67.8 °F 60% 30.14 in 10.0 mi Calm Calm - N/A   Mostly Cloudy
1:55 PM 83.8 °F 87.5 °F 68.9 °F 61% 30.14 in 10.0 mi South 5.8 mph - N/A   Mostly Cloudy
2:15 PM 83.3 °F 86.6 °F 68.7 °F 61% 30.13 in 10.0 mi East 4.6 mph - N/A   Scattered Clouds
2:35 PM 83.1 °F 86.3 °F 68.4 °F 61% 30.12 in 10.0 mi South 5.8 mph - N/A   Overcast
2:55 PM 85.1 °F 88.2 °F 68.0 °F 56% 30.12 in 10.0 mi SSW 4.6 mph - N/A   Mostly Cloudy
3:15 PM 84.4 °F 87.6 °F 68.2 °F 58% 30.11 in 10.0 mi SSE 5.8 mph - N/A   Mostly Cloudy
3:35 PM 84.6 °F 87.9 °F 68.5 °F 58% 30.10 in 10.0 mi South 4.6 mph - N/A   Mostly Cloudy
3:55 PM 82.8 °F 86.0 °F 68.4 °F 62% 30.10 in 10.0 mi SE 4.6 mph - N/A   Scattered Clouds
4:15 PM 82.8 °F 85.8 °F 68.0 °F 61% 30.10 in 10.0 mi SSE 4.6 mph - N/A   Clear
4:35 PM 85.1 °F 88.5 °F 68.5 °F 57% 30.09 in 10.0 mi SSW 5.8 mph - N/A   Clear
4:55 PM 85.1 °F 88.5 °F 68.4 °F 57% 30.08 in 10.0 mi SSW 3.5 mph - N/A   Clear
5:15 PM 85.1 °F 88.2 °F 67.6 °F 56% 30.08 in 10.0 mi South 4.6 mph - N/A   Clear
5:35 PM 85.3 °F 88.5 °F 68.2 °F 56% 30.08 in 10.0 mi South 5.8 mph - N/A   Clear
5:55 PM 84.7 °F 88.5 °F 68.9 °F 59% 30.08 in 10.0 mi SSE 3.5 mph - N/A   Scattered Clouds
6:15 PM 83.8 °F 87.0 °F 68.4 °F 59% 30.08 in 10.0 mi South 4.6 mph - N/A   Scattered Clouds
6:35 PM 83.5 °F 86.9 °F 68.5 °F 61% 30.08 in 10.0 mi SSE 3.5 mph - N/A   Clear
6:55 PM 82.4 °F 85.8 °F 68.9 °F 64% 30.08 in 10.0 mi SSE 3.5 mph - N/A   Clear
7:35 PM 79.5 °F - 69.6 °F 72% 30.08 in 10.0 mi Calm Calm - N/A   Clear
7:55 PM 75.9 °F - 70.7 °F 84% 30.08 in 10.0 mi Calm Calm - N/A   Scattered Clouds
8:15 PM 74.7 °F - 69.8 °F 85% 30.08 in 10.0 mi SE 4.6 mph - N/A   Scattered Clouds
8:35 PM 73.6 °F - 69.4 °F 87% 30.09 in 10.0 mi SE 5.8 mph - N/A   Clear
8:55 PM 74.1 °F - 69.6 °F 86% 30.09 in 10.0 mi SE 4.6 mph - N/A   Scattered Clouds
9:15 PM 73.6 °F - 69.6 °F 87% 30.09 in 10.0 mi SE 5.8 mph - N/A   Mostly Cloudy
9:35 PM 72.5 °F - 69.3 °F 90% 30.10 in 10.0 mi SE 4.6 mph - N/A   Clear
9:55 PM 72.7 °F - 69.1 °F 88% 30.10 in 10.0 mi SE 4.6 mph - N/A   Clear
10:15 PM 72.1 °F - 68.9 °F 89% 30.10 in 10.0 mi SSE 3.5 mph - N/A   Clear
10:35 PM 72.0 °F - 68.9 °F 90% 30.11 in 7.0 mi Calm Calm - N/A   Clear
10:55 PM 72.3 °F - 68.9 °F 89% 30.11 in 10.0 mi Calm Calm - N/A   Mostly Cloudy
11:15 PM 73.2 °F - 69.1 °F 87% 30.12 in 10.0 mi South 3.5 mph - N/A   Overcast
11:35 PM 73.0 °F - 68.9 °F 87% 30.12 in 10.0 mi SE 3.5 mph - N/A   Mostly Cloudy
11:55 PM 71.2 °F - 68.5 °F 91% 30.12 in 10.0 mi Calm Calm - N/A   Mostly Cloudy